GW0953 Weather Reports


time (UTC)temp
C
wind
direction
speed
KPH
gust
KPH
rain 1hr
cm
rain 24hr
cm
rain mn
cm
humidity
%
barometer
mb
20260509201553 17 8 1.6 1.6 0.00 0.18 0.18 67 1015.6
20260509201052 17 8 1.6 1.6 0.00 0.18 0.18 66 1015.6
20260509200550 17 356 0.0 1.6 0.00 0.18 0.18 69 1015.7
20260509200047 17 340 1.6 1.6 0.00 0.18 0.18 69 1015.5
20260509195543 17 301 1.6 1.6 0.00 0.18 0.18 69 1015.7
20260509195038 17 358 0.0 0.0 0.00 0.18 0.18 72 1015.6
20260509194533 17 26 1.6 3.2 0.00 0.18 0.18 73 1015.9
20260509194031 17 302 0.0 1.6 0.00 0.18 0.18 72 1015.9
20260509193531 16 51 1.6 1.6 0.00 0.18 0.18 74 1015.8
20260509193028 16 339 0.0 0.0 0.00 0.18 0.18 76 1015.8
20260509192524 16 42 4.8 4.8 0.00 0.18 0.18 75 1015.7
20260509192019 16 45 1.6 1.6 0.00 0.18 0.18 80 1016.3
20260509191514 16 345 0.0 0.0 0.00 0.18 0.18 77 1016.2
20260509191010 16 334 0.0 0.0 0.00 0.18 0.18 76 1015.9
20260509190507 16 306 0.0 1.6 0.00 0.18 0.18 77 1016.0
20260509190006 16 345 1.6 1.6 0.00 0.18 0.18 77 1016.4
20260509185502 16 317 0.0 1.6 0.00 0.18 0.18 79 1016.0
20260509184958 15 359 0.0 0.0 0.00 0.18 0.18 80 1016.0
20260509184457 15 359 0.0 0.0 0.00 0.18 0.18 80 1016.0
20260509183952 15 335 0.0 0.0 0.00 0.18 0.18 81 1016.0
20260509183447 16 11 1.6 1.6 0.00 0.18 0.18 79 1016.0
20260509182944 16 308 0.0 1.6 0.00 0.18 0.18 78 1016.3
20260509182440 15 58 1.6 1.6 0.00 0.18 0.18 81 1016.0
20260509181937 15 324 0.0 1.6 0.00 0.18 0.18 80 1016.0
20260509181436 15 15 1.6 1.6 0.00 0.18 0.18 79 1016.0
20260509180933 15 355 1.6 1.6 0.00 0.18 0.18 81 1016.3
20260509180428 15 355 0.0 1.6 0.00 0.18 0.18 83 1016.4
20260509175925 15 347 0.0 0.0 0.00 0.18 0.18 83 1016.2
20260509175421 14 5 1.6 1.6 0.00 0.18 0.18 84 1016.5
20260509174918 14 68 0.0 1.6 0.00 0.18 0.18 84 1016.2
20260509174414 13 339 0.0 0.0 0.00 0.18 0.18 85 1016.5
20260509173910 14 338 0.0 1.6 0.00 0.18 0.18 86 1016.6
20260509173409 13 349 0.0 0.0 0.00 0.18 0.18 87 1016.7
20260509172906 13 9 0.0 1.6 0.00 0.18 0.18 88 1016.5
20260509172403 13 334 0.0 1.6 0.00 0.18 0.18 89 1016.5
20260509171859 13 10 1.6 1.6 0.00 0.18 0.18 87 1016.4
20260509171355 13 10 0.0 0.0 0.00 0.18 0.18 89 1016.7
20260509170851 13 325 0.0 0.0 0.00 0.18 0.18 88 1016.7
20260509170347 13 350 0.0 0.0 0.00 0.18 0.18 86 1016.9
20260509165842 13 349 0.0 0.0 0.00 0.18 0.18 87 1016.7
20260509165336 13 339 0.0 0.0 0.00 0.18 0.18 87 1016.9
20260509164833 13 326 1.6 1.6 0.00 0.18 0.18 86 1017.2
20260509164329 13 343 0.0 0.0 0.00 0.18 0.18 87 1017.2
20260509163826 14 341 0.0 0.0 0.00 0.18 0.18 89 1017.2
20260509163322 13 347 0.0 0.0 0.00 0.18 0.18 88 1017.1
20260509162821 13 351 0.0 0.0 0.00 0.18 0.18 88 1016.9
20260509162314 13 337 0.0 0.0 0.00 0.18 0.18 91 1017.3
20260509161811 13 346 0.0 1.6 0.00 0.18 0.18 92 1017.2
20260509161307 12 359 0.0 1.6 0.00 0.18 0.18 92 1017.0
20260509160803 12 310 0.0 0.0 0.00 0.18 0.18 93 1017.5
20260509160259 12 342 0.0 0.0 0.00 0.18 0.18 94 1017.4
20260509155754 12 334 0.0 0.0 0.00 0.18 0.18 94 1017.3
20260509155251 12 336 0.0 0.0 0.00 0.18 0.18 94 1017.3
20260509154747 12 339 0.0 0.0 0.00 0.18 0.18 96 1017.5
20260509154245 12 341 0.0 0.0 0.00 0.18 0.18 95 1017.5
20260509153741 12 336 0.0 0.0 0.00 0.18 0.18 94 1017.5
20260509153237 12 334 0.0 0.0 0.00 0.18 0.18 94 1017.5
20260509152734 12 306 1.6 1.6 0.00 0.18 0.18 94 1017.6
20260509152231 12 318 0.0 1.6 0.00 0.18 0.18 94 1017.6
20260509151727 12 331 1.6 1.6 0.00 0.18 0.18 94 1017.4
20260509151224 12 336 0.0 0.0 0.00 0.18 0.18 94 1017.6
20260509150722 12 334 0.0 0.0 0.00 0.18 0.18 94 1017.6
20260509150220 12 342 0.0 0.0 0.00 0.18 0.18 94 1017.6
20260509145717 12 326 0.0 0.0 0.00 0.18 0.18 94 1017.5
20260509145212 12 343 0.0 0.0 0.00 0.18 0.18 96 1017.6
20260509144708 12 340 0.0 0.0 0.00 0.18 0.18 96 1017.3
20260509144205 11 332 0.0 0.0 0.00 0.18 0.18 96 1017.3
20260509143703 11 332 0.0 0.0 0.00 0.18 0.18 98 1017.6
20260509143200 11 343 0.0 0.0 0.18 0.18 0.18 98 1017.5
20260509142655 11 340 0.0 0.0 0.18 0.18 0.18 98 1017.6
20260509142152 11 340 0.0 0.0 0.00 0.15 0.15 99 1017.6
20260509141648 11 347 0.0 0.0 0.00 0.15 0.15 99 1017.7
20260509141144 11 330 0.0 0.0 0.13 0.15 0.15 99 1017.8
20260509140641 11 339 0.0 0.0 0.13 0.15 0.15 99 1017.7
20260509140139 11 340 0.0 0.0 0.00 0.13 0.13 99 1017.8
20260509135636 11 344 0.0 0.0 0.00 0.13 0.13 99 1017.6
20260509135134 11 345 0.0 0.0 0.18 0.13 0.13 99 1017.9
20260509134631 11 349 0.0 0.0 0.18 0.13 0.13 99 1017.9
20260509134128 11 343 0.0 0.0 0.18 0.10 0.10 99 1017.7
20260509133625 11 349 0.0 0.0 0.18 0.10 0.10 98 1017.9
20260509133122 11 340 0.0 0.0 0.00 0.08 0.08 98 1017.9
20260509132621 11 327 0.0 0.0 0.00 0.08 0.08 98 1018.0
20260509132119 11 333 0.0 0.0 0.13 0.08 0.08 98 1017.9
20260509131614 11 333 0.0 0.0 0.13 0.08 0.08 97 1017.8
20260509131112 11 332 3.2 3.2 0.00 0.05 0.05 97 1017.8
20260509130607 11 338 0.0 0.0 0.18 0.05 0.05 96 1017.9
20260509130104 11 338 0.0 0.0 0.18 0.05 0.05 95 1017.6
20260509125600 11 340 0.0 0.0 0.00 0.03 0.03 94 1017.8
20260509125057 11 334 0.0 0.0 0.13 0.03 0.03 93 1017.7
20260509124554 11 336 0.0 0.0 0.13 0.03 0.03 91 1017.9
20260509124051 12 329 0.0 0.0 0.00 0.00 0.00 88 1017.7
20260509123549 12 334 0.0 0.0 0.00 0.00 0.00 86 1017.6
20260509123045 12 335 0.0 0.0 0.00 0.00 0.00 85 1017.8
20260509122541 12 331 1.6 1.6 0.00 0.00 0.00 84 1018.0
20260509122039 12 336 0.0 0.0 0.00 0.00 0.00 83 1017.8
20260509121535 12 341 0.0 0.0 0.00 0.00 0.00 83 1017.9
20260509121033 12 318 1.6 1.6 0.00 0.00 0.00 80 1018.0
20260509120531 12 317 1.6 1.6 0.00 0.00 0.00 76 1017.8
20260509120029 12 354 0.0 1.6 0.00 0.00 0.00 76 1017.6
20260509115525 12 326 1.6 3.2 0.00 0.00 0.00 76 1017.5
20260509115023 12 354 1.6 1.6 0.00 0.00 0.00 76 1017.4
20260509114521 13 8 1.6 1.6 0.00 0.00 0.00 75 1017.5
20260509114020 13 357 0.0 0.0 0.00 0.00 0.00 75 1017.5
20260509113518 13 342 0.0 0.0 0.00 0.00 0.00 74 1017.5
20260509113015 13 333 0.0 0.0 0.00 0.00 0.00 74 1017.3
20260509112511 13 308 1.6 1.6 0.00 0.00 0.00 74 1017.3
20260509112008 13 186 3.2 3.2 0.00 0.00 0.00 73 1017.2
20260509111506 13 204 4.8 4.8 0.00 0.00 0.00 74 1017.0
20260509111003 13 333 0.0 1.6 0.00 0.00 0.00 74 1017.0
20260509110459 13 325 1.6 3.2 0.00 0.00 0.00 73 1017.0
20260509105956 13 160 4.8 4.8 0.00 0.00 0.00 73 1017.1
20260509105455 13 33 1.6 1.6 0.00 0.00 0.00 73 1017.0
20260509104952 13 60 1.6 3.2 0.00 0.00 0.00 73 1017.2
20260509104449 13 357 1.6 1.6 0.00 0.00 0.00 72 1017.0
20260509103946 13 307 3.2 3.2 0.00 0.00 0.00 71 1017.3
20260509103443 13 341 6.4 9.7 0.00 0.00 0.00 71 1017.2
20260509102941 13 310 1.6 1.6 0.00 0.00 0.00 71 1017.3
20260509102438 13 292 4.8 4.8 0.00 0.00 0.00 70 1017.4
20260509101934 13 325 3.2 3.2 0.00 0.00 0.00 70 1017.3
20260509101431 13 139 3.2 3.2 0.00 0.00 0.00 69 1017.3
20260509100928 13 324 3.2 3.2 0.00 0.00 0.00 72 1017.0
20260509100425 13 8 1.6 3.2 0.00 0.00 0.00 75 1017.1
20260509095922 12 345 6.4 8.0 0.00 0.00 0.00 74 1016.9
20260509095419 11 343 1.6 1.6 0.00 0.00 0.00 77 1017.0
20260509094916 10 327 1.6 1.6 0.00 0.00 0.00 86 1017.1
20260509094413 10 292 4.8 4.8 0.00 0.00 0.00 88 1017.2
20260509093911 10 320 0.0 0.0 0.00 0.00 0.00 88 1017.0
20260509093408 10 344 0.0 0.0 0.00 0.00 0.00 88 1016.9
20260509092906 10 343 0.0 0.0 0.00 0.00 0.00 87 1017.0
20260509092403 10 340 0.0 0.0 0.00 0.00 0.00 87 1017.1
20260509091902 10 334 1.6 3.2 0.00 0.00 0.00 87 1016.9
20260509091358 10 345 0.0 1.6 0.00 0.00 0.00 88 1016.9
20260509090855 10 347 0.0 1.6 0.00 0.00 0.00 88 1017.1
20260509090352 10 346 0.0 0.0 0.00 0.00 0.00 88 1016.9
20260509085850 10 342 0.0 0.0 0.00 0.00 0.00 85 1016.9
20260509085347 10 338 0.0 0.0 0.00 0.00 0.00 84 1016.9
20260509084843 10 323 0.0 0.0 0.00 0.00 0.00 86 1017.1
20260509084340 10 344 0.0 0.0 0.00 0.00 0.00 85 1016.9
20260509083838 10 335 0.0 0.0 0.00 0.00 0.00 85 1017.4
20260509083334 10 336 0.0 0.0 0.00 0.00 0.00 85 1017.0
20260509082831 10 344 0.0 0.0 0.00 0.00 0.00 86 1017.2
20260509082328 10 345 0.0 0.0 0.00 0.00 0.00 85 1017.2
20260509081826 10 338 0.0 0.0 0.00 0.00 0.00 85 1017.1
20260509081322 10 340 0.0 0.0 0.00 0.00 0.00 86 1016.9
20260509080820 10 340 0.0 0.0 0.00 0.00 0.00 85 1017.1
20260509080318 10 331 0.0 0.0 0.00 0.00 0.00 84 1017.0
20260509075816 10 331 0.0 0.0 0.00 0.00 0.00 84 1017.1
20260509075313 10 330 0.0 0.0 0.00 0.00 0.00 84 1017.0
20260509074810 10 325 0.0 0.0 0.00 0.00 0.00 83 1017.2
20260509074308 10 331 0.0 0.0 0.00 0.00 0.00 82 1017.1
20260509073803 10 331 0.0 0.0 0.00 0.00 0.00 83 1017.2
20260509073300 10 331 0.0 0.0 0.00 0.00 0.00 83 1017.2
20260509072757 10 331 0.0 0.0 0.00 0.00 0.00 85 1017.2
20260509072253 10 331 0.0 0.0 0.00 0.00 0.00 85 1017.1
20260509071750 10 331 0.0 0.0 0.00 0.00 0.00 84 1017.3
20260509071247 10 331 0.0 0.0 0.00 0.00 0.00 83 1017.3
20260509070744 10 331 0.0 0.0 0.00 0.00 0.00 82 1017.1
20260509070241 10 326 0.0 0.0 0.00 0.00 0.00 82 1017.2
20260509065737 10 332 0.0 0.0 0.00 0.00 0.00 82 1017.0
20260509065233 10 331 0.0 0.0 0.00 0.00 0.00 82 1016.9
20260509064730 10 331 0.0 0.0 0.00 0.00 0.00 82 1017.2
20260509064227 10 332 0.0 0.0 0.00 0.00 0.00 82 1017.2
20260509063725 10 331 0.0 0.0 0.00 0.00 0.00 83 1017.3
20260509063221 10 330 0.0 0.0 0.00 0.00 0.00 83 1017.3
20260509062718 11 326 0.0 0.0 0.00 0.00 0.00 83 1017.2
20260509062215 11 338 0.0 0.0 0.00 0.00 0.00 83 1017.2
20260509061712 11 342 0.0 0.0 0.00 0.00 0.00 81 1017.3
20260509061210 11 342 0.0 0.0 0.00 0.00 0.00 80 1017.3
20260509060707 11 342 0.0 0.0 0.00 0.00 0.00 81 1017.3
20260509060203 11 342 0.0 0.0 0.00 0.00 0.00 81 1017.6
20260509055659 11 341 0.0 0.0 0.00 0.00 0.00 81 1017.4
20260509055155 11 342 0.0 0.0 0.00 0.00 0.00 80 1017.6
20260509054652 11 341 0.0 0.0 0.00 0.00 0.00 80 1017.5
20260509054149 11 314 0.0 0.0 0.00 0.00 0.00 79 1017.4
20260509053648 11 336 0.0 0.0 0.00 0.00 0.00 77 1017.6
20260509053144 11 336 0.0 0.0 0.00 0.00 0.00 78 1017.8
20260509052642 11 336 0.0 0.0 0.00 0.00 0.00 78 1017.7
20260509052139 11 336 0.0 0.0 0.00 0.00 0.00 78 1017.9
20260509051637 11 336 0.0 0.0 0.00 0.00 0.00 78 1017.9
20260509051134 11 336 0.0 0.0 0.00 0.00 0.00 78 1017.8
20260509050631 11 335 0.0 0.0 0.00 0.00 0.00 78 1017.8
20260509050127 11 335 0.0 0.0 0.00 0.00 0.00 79 1017.8
20260509045625 11 335 0.0 0.0 0.00 0.00 0.00 79 1017.7
20260509045122 11 335 0.0 0.0 0.00 0.00 0.00 78 1017.6
20260509044619 11 335 0.0 0.0 0.00 0.00 0.00 78 1017.8
20260509044116 11 334 0.0 0.0 0.00 0.00 0.00 77 1017.7
20260509043613 11 333 0.0 0.0 0.00 0.00 0.00 77 1017.7
20260509043108 11 333 0.0 0.0 0.00 0.00 0.00 78 1017.7
20260509042605 11 333 0.0 0.0 0.00 0.00 0.00 78 1017.9
20260509042101 12 340 0.0 0.0 0.00 0.00 0.00 75 1017.6
20260509041558 12 340 0.0 0.0 0.00 0.00 0.00 74 1017.9
20260509041055 12 340 0.0 0.0 0.00 0.00 0.00 74 1018.0
20260509040554 12 340 0.0 0.0 0.00 0.00 0.00 75 1017.8
20260509040050 12 340 0.0 0.0 0.00 0.00 0.00 75 1017.9
20260509035547 12 340 0.0 0.0 0.00 0.00 0.00 74 1017.9
20260509035044 12 340 0.0 0.0 0.00 0.00 0.00 71 1018.0
20260509034542 12 340 0.0 0.0 0.00 0.00 0.00 71 1018.1
20260509034039 12 340 0.0 0.0 0.00 0.00 0.00 73 1018.1
20260509033536 12 340 0.0 0.0 0.00 0.00 0.00 73 1017.9
20260509033032 12 340 0.0 0.0 0.00 0.00 0.00 71 1018.2
20260509032530 12 344 0.0 0.0 0.00 0.00 0.00 70 1018.0
20260509032027 12 344 0.0 0.0 0.00 0.00 0.00 71 1018.0
20260509031524 12 330 3.2 3.2 0.00 0.00 0.00 71 1018.0
20260509031021 12 356 0.0 0.0 0.00 0.00 0.00 73 1018.0
20260509030520 12 353 0.0 0.0 0.00 0.00 0.00 73 1018.0
20260509030016 12 330 0.0 0.0 0.00 0.00 0.00 72 1018.1
20260509025512 12 333 0.0 0.0 0.00 0.00 0.00 71 1018.1
20260509025008 12 333 0.0 0.0 0.00 0.00 0.00 70 1017.9
20260509024503 12 332 0.0 0.0 0.00 0.00 0.00 69 1017.9
20260509024000 12 342 0.0 0.0 0.00 0.00 0.00 70 1017.7
20260509023457 12 343 0.0 0.0 0.00 0.00 0.00 70 1018.1
20260509022949 12 316 0.0 1.6 0.00 0.00 0.00 71 1018.1
20260509022446 13 305 0.0 0.0 0.00 0.00 0.00 70 1018.0
20260509021943 13 350 0.0 0.0 0.00 0.00 0.00 66 1018.3
20260509021440 12 348 0.0 0.0 0.00 0.00 0.00 67 1018.0
20260509020938 12 332 0.0 1.6 0.00 0.00 0.00 71 1018.2
20260509020436 12 333 0.0 0.0 0.00 0.00 0.00 72 1018.0
20260509015932 12 332 0.0 0.0 0.00 0.00 0.00 70 1017.8
20260509015431 12 334 0.0 0.0 0.00 0.00 0.00 69 1018.0
20260509014927 13 327 0.0 1.6 0.00 0.00 0.00 70 1018.0
20260509014424 13 341 0.0 0.0 0.00 0.00 0.00 67 1017.9
20260509013920 13 342 0.0 0.0 0.00 0.00 0.00 68 1018.1
20260509013417 12 341 0.0 0.0 0.00 0.00 0.00 69 1018.0
20260509012913 13 333 0.0 0.0 0.00 0.00 0.00 69 1017.9
20260509012410 13 336 0.0 0.0 0.00 0.00 0.00 67 1017.9
20260509011907 13 338 0.0 0.0 0.00 0.00 0.00 66 1017.7
20260509011404 13 340 0.0 0.0 0.00 0.00 0.00 64 1017.9
20260509010903 13 341 0.0 0.0 0.00 0.00 0.00 66 1017.8
20260509010400 13 344 0.0 0.0 0.00 0.00 0.00 66 1017.5
20260509005856 13 334 0.0 0.0 0.00 0.00 0.00 66 1017.7
20260509005354 13 334 0.0 0.0 0.00 0.00 0.00 66 1017.5
20260509004849 13 334 0.0 0.0 0.00 0.00 0.00 67 1017.6
20260509004346 13 334 0.0 0.0 0.00 0.00 0.00 66 1017.4
20260509003843 13 334 0.0 0.0 0.00 0.00 0.00 63 1017.5
20260509003341 13 334 0.0 0.0 0.00 0.00 0.00 62 1017.4
20260509002838 14 334 0.0 0.0 0.00 0.00 0.00 63 1017.4
20260509002336 14 333 0.0 0.0 0.00 0.00 0.00 58 1017.4
20260509001833 14 334 0.0 0.0 0.00 0.00 0.00 60 1017.7
20260509001329 15 331 0.0 1.6 0.00 0.00 0.00 59 1017.5
20260509000826 15 331 0.0 1.6 0.00 0.00 0.00 61 1017.4
20260509000325 15 331 0.0 1.6 0.00 0.00 0.00 61 1017.3
20260508235820 16 322 0.0 1.6 0.00 0.00 0.00 59 1017.4
20260508235317 15 336 0.0 0.0 0.00 0.00 0.00 54 1017.4
20260508234814 15 336 0.0 0.0 0.00 0.00 0.00 57 1017.4
20260508234310 15 335 0.0 0.0 0.00 0.00 0.00 58 1017.1
20260508233809 16 336 0.0 0.0 0.00 0.00 0.00 56 1017.2
20260508233308 16 331 1.6 1.6 0.00 0.00 0.00 55 1017.3
20260508232805 16 333 3.2 3.2 0.00 0.00 0.00 55 1017.4
20260508232301 16 345 1.6 1.6 0.00 0.00 0.00 53 1017.2
20260508231800 15 336 1.6 1.6 0.00 0.00 0.00 54 1017.3
20260508231255 15 338 1.6 1.6 0.00 0.00 0.00 54 1017.2
20260508230752 16 332 1.6 3.2 0.00 0.00 0.00 55 1017.2
20260508230248 16 332 1.6 1.6 0.00 0.00 0.00 52 1017.3
20260508225746 17 336 1.6 3.2 0.00 0.00 0.00 45 1017.3
20260508225242 17 332 1.6 1.6 0.00 0.00 0.00 41 1017.2
20260508224740 18 304 3.2 3.2 0.00 0.00 0.00 41 1017.3
20260508224238 18 331 0.0 1.6 0.00 0.00 0.00 44 1017.4
20260508223736 18 332 0.0 0.0 0.00 0.00 0.00 43 1017.1
20260508223232 20 317 3.2 3.2 0.00 0.00 0.00 42 1017.2
20260508222730 19 358 0.0 0.0 0.00 0.00 0.00 39 1017.2
20260508222227 20 314 1.6 1.6 0.00 0.00 0.00 41 1017.5
20260508221723 20 4 3.2 4.8 0.00 0.00 0.00 38 1017.7
20260508221220 20 308 1.6 1.6 0.00 0.00 0.00 38 1017.6
20260508220716 19 326 0.0 0.0 0.00 0.00 0.00 39 1017.8
20260508220213 18 325 0.0 0.0 0.00 0.00 0.00 41 1017.5
20260508215709 18 357 1.6 1.6 0.00 0.00 0.00 42 1017.9
20260508215205 18 279 3.2 3.2 0.00 0.00 0.00 41 1017.6
20260508214703 19 277 4.8 4.8 0.00 0.00 0.00 40 1017.8
20260508214200 19 352 0.0 1.6 0.00 0.00 0.00 41 1018.0
20260508213656 18 343 0.0 0.0 0.00 0.00 0.00 40 1017.7
20260508213153 18 313 4.8 4.8 0.00 0.00 0.00 41 1018.1
20260508212649 18 330 0.0 0.0 0.00 0.00 0.00 41 1018.0
20260508212146 18 287 1.6 1.6 0.00 0.00 0.00 42 1018.3
20260508211641 18 312 1.6 1.6 0.00 0.00 0.00 42 1018.3
20260508211138 18 22 1.6 1.6 0.00 0.00 0.00 41 1018.5
20260508210634 18 350 1.6 3.2 0.00 0.00 0.00 43 1018.5
20260508210132 18 328 3.2 3.2 0.00 0.00 0.00 40 1018.1
20260508205629 18 289 0.0 1.6 0.00 0.00 0.00 42 1018.2
20260508205125 18 324 3.2 3.2 0.00 0.00 0.00 41 1018.5
20260508204621 17 301 4.8 4.8 0.00 0.00 0.00 41 1018.3
20260508204118 17 295 4.8 4.8 0.00 0.00 0.00 41 1018.5
20260508203614 17 277 1.6 3.2 0.00 0.00 0.00 41 1018.4
20260508203110 18 304 1.6 3.2 0.00 0.00 0.00 41 1018.5
20260508202606 17 190 4.8 8.0 0.00 0.00 0.00 41 1018.6
20260508202104 17 34 1.6 1.6 0.00 0.00 0.00 42 1018.5